| time (UTC) | temp C | wind direction | speed KPH | gust KPH | rain 1hr cm | rain 24hr cm | rain mn cm | humidity % | barometer mb |
| 20260505165516 | 26 | 293 | 1.6 | 4.8 | 0.00 | 0.00 | 0.00 | 43 | 1017.2 |
| 20260505164536 | 26 | 225 | 3.2 | 9.7 | 0.00 | 0.00 | 0.00 | 41 | 1017.4 |
| 20260505163516 | 26 | 45 | 1.6 | 6.4 | 0.00 | 0.00 | 0.00 | 42 | 1017.4 |
| 20260505162516 | 26 | 315 | 1.6 | 4.8 | 0.00 | 0.00 | 0.00 | 42 | 1017.4 |
| 20260505161516 | 26 | 248 | 1.6 | 4.8 | 0.00 | 0.00 | 0.00 | 43 | 1017.5 |
| 20260505160516 | 26 | 225 | 3.2 | 8.0 | 0.00 | 0.00 | 0.00 | 46 | 1017.4 |
| 20260505152515 | 25 | 248 | 1.6 | 9.7 | 0.00 | 0.00 | 0.00 | 52 | 1017.9 |
| 20260505151515 | 24 | 45 | 1.6 | 3.2 | 0.00 | 0.00 | 0.00 | 55 | 1018.0 |
| 20260505150515 | 24 | 315 | 1.6 | 4.8 | 0.00 | 0.00 | 0.00 | 55 | 1018.0 |
| 20260505140515 | 21 | 45 | 1.6 | 3.2 | 0.00 | 0.00 | 0.00 | 61 | 1017.7 |
| 20260505124515 | 17 | 0.0 | 3.2 | 0.00 | 0.00 | 0.00 | 78 | 1017.9 | |
| 20260505123515 | 16 | 0.0 | 1.6 | 0.00 | 0.00 | 0.00 | 81 | 1017.8 | |
| 20260505122516 | 15 | 0.0 | 1.6 | 0.00 | 0.00 | 0.00 | 84 | 1017.8 | |
| 20260505121515 | 15 | 0.0 | 1.6 | 0.00 | 0.00 | 0.00 | 87 | 1017.8 | |
| 20260505120515 | 13 | 0.0 | 1.6 | 0.00 | 0.00 | 0.00 | 88 | 1017.7 | |
| 20260505115515 | 13 | 0.0 | 1.6 | 0.00 | 0.00 | 0.00 | 89 | 1017.7 | |
| 20260505114515 | 12 | 0.0 | 0.0 | 0.00 | 0.00 | 0.00 | 90 | 1017.7 | |
| 20260505113515 | 12 | 0.0 | 1.6 | 0.00 | 0.00 | 0.00 | 90 | 1017.6 | |
| 20260505112515 | 12 | 0.0 | 0.0 | 0.00 | 0.00 | 0.00 | 89 | 1017.6 | |
| 20260505111515 | 12 | 0.0 | 0.0 | 0.00 | 0.00 | 0.00 | 88 | 1017.6 | |
| 20260505110515 | 12 | 0.0 | 0.0 | 0.00 | 0.00 | 0.00 | 88 | 1017.4 | |
| 20260505101515 | 12 | 0.0 | 1.6 | 0.00 | 0.00 | 0.00 | 87 | 1016.9 | |
| 20260505100515 | 12 | 0.0 | 1.6 | 0.00 | 0.00 | 0.00 | 86 | 1016.9 | |
| 20260505095516 | 12 | 0.0 | 1.6 | 0.00 | 0.00 | 0.00 | 86 | 1016.8 | |
| 20260505094535 | 12 | 0.0 | 0.0 | 0.00 | 0.00 | 0.00 | 85 | 1016.7 | |
| 20260505093515 | 12 | 0.0 | 0.0 | 0.00 | 0.00 | 0.00 | 85 | 1016.5 | |
| 20260505092557 | 12 | 0.0 | 1.6 | 0.00 | 0.00 | 0.00 | 85 | 1016.5 | |
| 20260505091517 | 13 | 0.0 | 0.0 | 0.00 | 0.00 | 0.00 | 84 | 1016.5 | |
| 20260505090517 | 13 | 0.0 | 1.6 | 0.00 | 0.00 | 0.00 | 84 | 1016.5 | |
| 20260505085517 | 13 | 0.0 | 1.6 | 0.00 | 0.00 | 0.00 | 84 | 1016.5 | |
| 20260505084538 | 13 | 0.0 | 0.0 | 0.00 | 0.00 | 0.00 | 83 | 1016.4 | |
| 20260505083517 | 13 | 0.0 | 1.6 | 0.00 | 0.00 | 0.00 | 83 | 1016.4 | |
| 20260505082537 | 13 | 0.0 | 0.0 | 0.00 | 0.00 | 0.00 | 82 | 1016.6 | |
| 20260505081517 | 13 | 0.0 | 0.0 | 0.00 | 0.00 | 0.00 | 81 | 1016.5 | |
| 20260505080537 | 14 | 0.0 | 1.6 | 0.00 | 0.00 | 0.00 | 80 | 1016.3 | |
| 20260505075516 | 14 | 0.0 | 0.0 | 0.00 | 0.00 | 0.00 | 80 | 1016.4 | |
| 20260505074518 | 14 | 0.0 | 1.6 | 0.00 | 0.00 | 0.00 | 79 | 1016.1 | |
| 20260505073516 | 15 | 0.0 | 1.6 | 0.00 | 0.00 | 0.00 | 79 | 1016.1 | |
| 20260505072517 | 15 | 0.0 | 1.6 | 0.00 | 0.00 | 0.00 | 78 | 1016.2 | |
| 20260505071517 | 15 | 0.0 | 1.6 | 0.00 | 0.00 | 0.00 | 78 | 1016.1 | |
| 20260505070517 | 15 | 0.0 | 1.6 | 0.00 | 0.00 | 0.00 | 77 | 1016.1 | |
| 20260505065557 | 15 | 0.0 | 1.6 | 0.00 | 0.00 | 0.00 | 76 | 1016.1 | |
| 20260505064517 | 15 | 0.0 | 4.8 | 0.00 | 0.00 | 0.00 | 76 | 1016.1 | |
| 20260505063517 | 15 | 0.0 | 0.0 | 0.00 | 0.00 | 0.00 | 75 | 1016.0 | |
| 20260505062558 | 16 | 0.0 | 1.6 | 0.00 | 0.00 | 0.00 | 74 | 1016.0 | |
| 20260505061517 | 16 | 0.0 | 1.6 | 0.00 | 0.00 | 0.00 | 73 | 1016.1 | |
| 20260505060516 | 16 | 0.0 | 1.6 | 0.00 | 0.00 | 0.00 | 73 | 1016.2 | |
| 20260505055517 | 16 | 0.0 | 1.6 | 0.00 | 0.00 | 0.00 | 72 | 1016.2 | |
| 20260505054516 | 16 | 0.0 | 4.8 | 0.00 | 0.00 | 0.00 | 72 | 1016.1 | |
| 20260505053516 | 17 | 0.0 | 1.6 | 0.00 | 0.00 | 0.00 | 72 | 1016.2 | |
| 20260505052537 | 17 | 0.0 | 3.2 | 0.00 | 0.00 | 0.00 | 71 | 1016.3 | |
| 20260505051516 | 17 | 0.0 | 3.2 | 0.00 | 0.00 | 0.00 | 70 | 1016.2 | |
| 20260505050516 | 17 | 225 | 1.6 | 11.3 | 0.00 | 0.00 | 0.00 | 70 | 1016.2 |
| 20260505041517 | 17 | 0.0 | 1.6 | 0.00 | 0.00 | 0.00 | 69 | 1016.1 | |
| 20260505040516 | 18 | 0.0 | 0.0 | 0.00 | 0.00 | 0.00 | 68 | 1016.1 | |
| 20260505035517 | 18 | 0.0 | 3.2 | 0.00 | 0.00 | 0.00 | 68 | 1016.1 | |
| 20260505034517 | 18 | 0.0 | 3.2 | 0.00 | 0.00 | 0.00 | 67 | 1016.1 | |
| 20260505033516 | 18 | 0.0 | 3.2 | 0.00 | 0.00 | 0.00 | 66 | 1016.0 | |
| 20260505032517 | 18 | 0.0 | 3.2 | 0.00 | 0.00 | 0.00 | 66 | 1016.0 | |
| 20260505031517 | 18 | 0.0 | 3.2 | 0.00 | 0.00 | 0.00 | 64 | 1016.0 | |
| 20260505030558 | 19 | 0.0 | 3.2 | 0.00 | 0.00 | 0.00 | 63 | 1016.0 | |
| 20260505025517 | 19 | 203 | 1.6 | 8.0 | 0.00 | 0.00 | 0.00 | 62 | 1016.0 |
| 20260505024557 | 19 | 0.0 | 9.7 | 0.00 | 0.00 | 0.00 | 60 | 1015.9 | |
| 20260505023517 | 19 | 0.0 | 3.2 | 0.00 | 0.00 | 0.00 | 57 | 1015.9 | |
| 20260505022516 | 18 | 0.0 | 4.8 | 0.00 | 0.00 | 0.00 | 56 | 1015.7 | |
| 20260505021518 | 18 | 0.0 | 1.6 | 0.00 | 0.00 | 0.00 | 54 | 1015.7 | |
| 20260505020517 | 18 | 0.0 | 1.6 | 0.00 | 0.00 | 0.00 | 54 | 1015.5 | |
| 20260505015517 | 18 | 0.0 | 1.6 | 0.00 | 0.00 | 0.00 | 54 | 1015.3 | |
| 20260505014517 | 18 | 0.0 | 1.6 | 0.00 | 0.00 | 0.00 | 53 | 1015.3 | |
| 20260505013516 | 19 | 0.0 | 0.0 | 0.00 | 0.00 | 0.00 | 52 | 1015.2 | |
| 20260505012517 | 19 | 0.0 | 1.6 | 0.00 | 0.00 | 0.00 | 53 | 1015.1 | |
| 20260505011517 | 19 | 0.0 | 3.2 | 0.00 | 0.00 | 0.00 | 52 | 1015.0 | |
| 20260505010517 | 19 | 0.0 | 1.6 | 0.00 | 0.00 | 0.00 | 52 | 1014.9 | |
| 20260505005516 | 19 | 0.0 | 1.6 | 0.00 | 0.00 | 0.00 | 50 | 1014.7 | |
| 20260505004516 | 20 | 0.0 | 1.6 | 0.00 | 0.00 | 0.00 | 50 | 1014.6 | |
| 20260505003517 | 20 | 0.0 | 3.2 | 0.00 | 0.00 | 0.00 | 49 | 1014.5 | |
| 20260505002536 | 20 | 0.0 | 0.0 | 0.00 | 0.00 | 0.00 | 49 | 1014.4 | |
| 20260505001516 | 21 | 0.0 | 0.0 | 0.00 | 0.00 | 0.00 | 48 | 1014.3 | |
| 20260505000516 | 21 | 0.0 | 1.6 | 0.00 | 0.00 | 0.00 | 45 | 1014.2 | |
| 20260504235516 | 22 | 0.0 | 1.6 | 0.00 | 0.00 | 0.00 | 43 | 1014.1 | |
| 20260504234517 | 22 | 0.0 | 0.0 | 0.00 | 0.00 | 0.00 | 42 | 1014.0 | |
| 20260504233516 | 23 | 0.0 | 1.6 | 0.00 | 0.00 | 0.00 | 41 | 1014.0 | |
| 20260504232516 | 23 | 0.0 | 1.6 | 0.00 | 0.00 | 0.00 | 41 | 1013.9 | |
| 20260504231516 | 23 | 0.0 | 3.2 | 0.00 | 0.00 | 0.00 | 40 | 1013.8 | |
| 20260504230516 | 23 | 0.0 | 1.6 | 0.00 | 0.00 | 0.00 | 40 | 1013.9 | |
| 20260504225516 | 24 | 0.0 | 0.0 | 0.00 | 0.00 | 0.00 | 40 | 1013.9 | |
| 20260504224517 | 25 | 45 | 1.6 | 8.0 | 0.00 | 0.00 | 0.00 | 38 | 1013.9 |
| 20260504223536 | 25 | 0.0 | 3.2 | 0.00 | 0.00 | 0.00 | 38 | 1014.0 | |
| 20260504222516 | 25 | 68 | 1.6 | 3.2 | 0.00 | 0.00 | 0.00 | 37 | 1013.9 |
| 20260504221516 | 25 | 0.0 | 3.2 | 0.00 | 0.00 | 0.00 | 37 | 1014.0 | |
| 20260504220517 | 25 | 0.0 | 1.6 | 0.00 | 0.00 | 0.00 | 38 | 1014.0 | |
| 20260504215516 | 25 | 68 | 1.6 | 4.8 | 0.00 | 0.00 | 0.00 | 37 | 1014.0 |
| 20260504214516 | 25 | 270 | 1.6 | 4.8 | 0.00 | 0.00 | 0.00 | 36 | 1014.1 |
| 20260504213516 | 25 | 270 | 1.6 | 4.8 | 0.00 | 0.00 | 0.00 | 36 | 1014.1 |
| 20260504212516 | 25 | 270 | 1.6 | 4.8 | 0.00 | 0.00 | 0.00 | 36 | 1014.1 |
| 20260504211517 | 25 | 113 | 1.6 | 4.8 | 0.00 | 0.00 | 0.00 | 35 | 1014.2 |
| 20260504210536 | 26 | 0 | 1.6 | 3.2 | 0.00 | 0.00 | 0.00 | 35 | 1014.3 |
| 20260504205536 | 26 | 293 | 1.6 | 4.8 | 0.00 | 0.00 | 0.00 | 35 | 1014.2 |
| 20260504204516 | 26 | 45 | 1.6 | 4.8 | 0.00 | 0.00 | 0.00 | 34 | 1014.2 |
| 20260504203516 | 26 | 338 | 1.6 | 3.2 | 0.00 | 0.00 | 0.00 | 33 | 1014.4 |
| 20260504202517 | 26 | 293 | 1.6 | 4.8 | 0.00 | 0.00 | 0.00 | 35 | 1014.5 |
| 20260504201516 | 26 | 293 | 1.6 | 3.2 | 0.00 | 0.00 | 0.00 | 34 | 1014.6 |
| 20260504200516 | 26 | 270 | 1.6 | 11.3 | 0.00 | 0.00 | 0.00 | 35 | 1014.6 |
| 20260504195516 | 26 | 270 | 1.6 | 3.2 | 0.00 | 0.00 | 0.00 | 34 | 1014.7 |
| 20260504194516 | 26 | 225 | 3.2 | 9.7 | 0.00 | 0.00 | 0.00 | 35 | 1014.8 |
| 20260504193536 | 26 | 248 | 1.6 | 3.2 | 0.00 | 0.00 | 0.00 | 34 | 1015.0 |
| 20260504192516 | 26 | 293 | 1.6 | 6.4 | 0.00 | 0.00 | 0.00 | 35 | 1015.3 |
| 20260504191516 | 26 | 293 | 1.6 | 6.4 | 0.00 | 0.00 | 0.00 | 37 | 1015.2 |
| 20260504190517 | 26 | 0.0 | 3.2 | 0.00 | 0.00 | 0.00 | 37 | 1015.3 | |
| 20260504185516 | 26 | 225 | 1.6 | 4.8 | 0.00 | 0.00 | 0.00 | 37 | 1015.4 |
| 20260504184516 | 26 | 270 | 1.6 | 4.8 | 0.00 | 0.00 | 0.00 | 36 | 1015.6 |
| 20260504183516 | 25 | 45 | 1.6 | 4.8 | 0.00 | 0.00 | 0.00 | 36 | 1015.6 |
| 20260504182516 | 25 | 225 | 1.6 | 4.8 | 0.00 | 0.00 | 0.00 | 36 | 1015.5 |
| 20260504181516 | 26 | 315 | 1.6 | 4.8 | 0.00 | 0.00 | 0.00 | 35 | 1015.9 |
| 20260504180516 | 25 | 23 | 1.6 | 3.2 | 0.00 | 0.00 | 0.00 | 38 | 1015.8 |
| 20260504175516 | 25 | 338 | 1.6 | 4.8 | 0.00 | 0.00 | 0.00 | 35 | 1016.0 |
| 20260504174515 | 25 | 270 | 1.6 | 4.8 | 0.00 | 0.00 | 0.00 | 35 | 1016.0 |
| 20260504173516 | 25 | 293 | 1.6 | 6.4 | 0.00 | 0.00 | 0.00 | 36 | 1016.1 |
| 20260504172516 | 24 | 248 | 1.6 | 3.2 | 0.00 | 0.00 | 0.00 | 40 | 1016.1 |
| 20260504171516 | 24 | 45 | 1.6 | 4.8 | 0.00 | 0.00 | 0.00 | 40 | 1016.5 |
| 20260504170516 | 23 | 23 | 1.6 | 4.8 | 0.00 | 0.00 | 0.00 | 38 | 1016.7 |